CW2157 Weather Reports


time (UTC)temp
C
wind
direction
speed
KPH
gust
KPH
rain 1hr
cm
rain 24hr
cm
rain mn
cm
humidity
%
barometer
mb
20260508113204 12 25 0.0 4.8 0.00 0.00 0.00 59 1013.7
20260508112704 12 8 1.6 4.8 0.00 0.00 0.00 59 1013.7
20260508112203 11 338 0.0 3.2 0.00 0.00 0.00 62 1013.6
20260508111203 11 348 1.6 4.8 0.00 0.00 0.00 63 1013.4
20260508110704 11 357 3.2 4.8 0.00 0.00 0.00 64 1013.5
20260508110204 11 347 3.2 4.8 0.00 0.00 0.00 63 1013.4
20260508105704 11 9 1.6 4.8 0.00 0.00 0.00 64 1013.3
20260508105204 11 10 0.0 4.8 0.00 0.00 0.00 64 1013.2
20260508104704 11 352 1.6 4.8 0.00 0.00 0.00 63 1013.1
20260508104204 11 352 1.6 4.8 0.00 0.00 0.00 63 1013.1
20260508102704 11 1 0.0 4.8 0.00 0.03 0.00 62 1012.8
20260508102204 11 348 3.2 8.0 0.00 0.03 0.00 62 1012.8
20260508101704 11 350 1.6 9.7 0.00 0.03 0.00 62 1012.7
20260508101204 11 358 1.6 4.8 0.00 0.03 0.00 62 1012.6
20260508100704 11 347 1.6 4.8 0.00 0.03 0.00 62 1012.6
20260508100204 11 344 0.0 4.8 0.00 0.03 0.00 63 1012.7
20260508095205 11 351 1.6 8.0 0.00 0.03 0.00 62 1012.6
20260508094706 11 339 3.2 8.0 0.00 0.03 0.00 61 1012.5
20260508094205 11 4 1.6 8.0 0.00 0.03 0.00 61 1012.6
20260508093706 11 356 3.2 8.0 0.00 0.03 0.00 61 1012.6
20260508093205 11 344 1.6 9.7 0.00 0.03 0.00 62 1012.5
20260508092705 11 1 1.6 4.8 0.00 0.03 0.00 62 1012.5
20260508092205 11 353 6.4 14.5 0.00 0.03 0.00 64 1012.5
20260508091706 11 355 4.8 14.5 0.00 0.03 0.00 66 1012.4
20260508091205 11 0 4.8 11.3 0.00 0.03 0.00 67 1012.3
20260508085706 11 345 4.8 9.7 0.00 0.03 0.00 67 1012.0
20260508085205 11 337 3.2 8.0 0.00 0.03 0.00 68 1012.1
20260508084705 11 351 4.8 14.5 0.00 0.03 0.00 67 1011.9
20260508084205 11 334 8.0 19.3 0.00 0.03 0.00 68 1011.8
20260508083706 11 354 3.2 11.3 0.00 0.03 0.00 69 1011.8
20260508083205 11 339 3.2 14.5 0.00 0.03 0.00 70 1011.7
20260508082706 11 359 4.8 12.9 0.00 0.03 0.00 70 1011.6
20260508082206 11 343 1.6 12.9 0.00 0.03 0.00 71 1011.6
20260508081705 11 331 3.2 11.3 0.00 0.03 0.00 71 1011.6
20260508081205 11 351 4.8 11.3 0.00 0.03 0.00 74 1011.6
20260508080206 11 331 3.2 9.7 0.00 0.03 0.00 75 1011.4
20260508075705 11 324 4.8 12.9 0.00 0.03 0.00 77 1011.3
20260508075205 11 319 4.8 14.5 0.00 0.03 0.00 78 1011.2
20260508074706 11 347 3.2 14.5 0.00 0.03 0.00 80 1011.2
20260508073705 11 334 4.8 19.3 0.00 0.03 0.00 82 1010.9
20260508073206 11 340 4.8 14.5 0.00 0.03 0.00 84 1010.8
20260508072705 11 343 0.0 4.8 0.00 0.03 0.00 85 1010.8
20260508072206 11 198 0.0 4.8 0.00 0.03 0.00 85 1010.7
20260508071705 11 259 1.6 9.7 0.00 0.03 0.00 85 1010.6
20260508071205 11 237 3.2 9.7 0.00 0.03 0.00 85 1010.6
20260508070205 11 322 3.2 4.8 0.00 0.03 0.00 85 1010.3
20260508065705 11 298 1.6 9.7 0.00 0.03 0.00 86 1010.3
20260508064705 11 5 1.6 4.8 0.00 0.03 0.00 85 1010.1
20260508064206 11 280 3.2 8.0 0.00 0.03 0.00 85 1010.0
20260508063707 11 332 0.0 8.0 0.00 0.03 0.00 85 1010.0
20260508063205 11 226 1.6 8.0 0.00 0.03 0.00 85 1010.0
20260508062705 11 281 1.6 4.8 0.00 0.03 0.00 85 1010.0
20260508061706 11 289 0.0 11.3 0.00 0.03 0.00 85 1010.0
20260508061206 11 267 3.2 11.3 0.00 0.05 0.00 84 1010.1
20260508060705 11 271 1.6 4.8 0.00 0.05 0.00 84 1010.1
20260508060206 11 270 6.4 11.3 0.00 0.05 0.00 85 1010.1
20260508055706 11 271 3.2 9.7 0.00 0.05 0.00 84 1010.1
20260508055205 11 245 1.6 9.7 0.00 0.08 0.00 84 1010.1
20260508054706 11 247 1.6 8.0 0.00 0.13 0.00 83 1010.1
20260508053706 11 254 3.2 14.5 0.00 0.20 0.00 82 1010.1
20260508053205 11 238 3.2 14.5 0.00 0.30 0.00 82 1010.0
20260508052705 11 232 8.0 16.1 0.00 0.33 0.00 82 1010.1
20260508052205 11 262 3.2 12.9 0.00 0.36 0.00 82 1010.2
20260508051706 12 231 3.2 14.5 0.00 0.41 0.00 82 1010.2
20260508051205 12 237 3.2 14.5 0.00 0.41 0.00 82 1010.2
20260508050206 12 238 3.2 9.7 0.00 0.41 0.00 82 1010.1
20260508045205 12 260 3.2 11.3 0.00 0.41 0.00 82 1010.1
20260508044205 12 289 3.2 14.5 0.00 0.41 0.00 82 1010.1
20260508043705 12 242 3.2 16.1 0.00 0.41 0.00 82 1009.9
20260508043205 12 263 6.4 16.1 0.00 0.41 0.00 82 1009.9
20260508042706 12 243 3.2 19.3 0.00 0.41 0.00 83 1009.9
20260508042206 12 258 4.8 16.1 0.00 0.41 0.00 83 1009.9
20260508041705 11 245 4.8 14.5 0.00 0.41 0.00 83 1009.8
20260508040705 11 255 4.8 12.9 0.00 0.41 0.00 84 1009.7
20260508040205 11 239 4.8 12.9 0.00 0.41 0.00 83 1009.7
20260508035706 11 302 0.0 8.0 0.00 0.41 0.41 83 1009.7
20260508035205 11 222 1.6 4.8 0.00 0.41 0.41 83 1009.6
20260508034705 11 317 1.6 4.8 0.00 0.41 0.41 82 1009.7
20260508033205 11 280 4.8 11.3 0.00 0.41 0.41 81 1009.6
20260508032706 11 237 3.2 11.3 0.00 0.41 0.41 81 1009.5
20260508032205 11 282 4.8 9.7 0.00 0.41 0.41 81 1009.6
20260508031206 11 255 3.2 11.3 0.00 0.41 0.41 81 1009.8
20260508024205 11 251 1.6 11.3 0.00 0.41 0.41 78 1009.8
20260508023705 11 237 3.2 14.5 0.00 0.41 0.41 78 1009.7
20260508021705 10 239 3.2 11.3 0.00 0.41 0.41 78 1009.6
20260508021205 10 222 3.2 8.0 0.00 0.41 0.41 78 1009.6
20260508020705 10 100 3.2 9.7 0.00 0.41 0.41 78 1009.6
20260508020206 10 274 4.8 11.3 0.00 0.41 0.41 78 1009.6
20260508015705 10 244 3.2 14.5 0.00 0.41 0.41 78 1009.5
20260508014706 10 2 1.6 8.0 0.00 0.41 0.41 78 1009.7
20260508013705 10 197 1.6 3.2 0.00 0.41 0.41 78 1009.5
20260508012705 10 244 6.4 11.3 0.00 0.41 0.41 78 1009.3
20260508012205 10 290 1.6 9.7 0.00 0.41 0.41 78 1009.3
20260508011705 10 289 3.2 8.0 0.00 0.41 0.41 78 1009.2
20260508010705 10 286 4.8 11.3 0.00 0.41 0.41 77 1008.9
20260508010205 10 245 4.8 12.9 0.00 0.41 0.41 77 1008.9
20260508005205 10 232 8.0 12.9 0.00 0.41 0.41 76 1008.9
20260508004705 11 244 9.7 12.9 0.00 0.41 0.41 76 1008.9
20260508004205 11 237 8.0 12.9 0.00 0.41 0.41 75 1008.9
20260508003706 11 230 9.7 12.9 0.00 0.41 0.41 75 1008.8
20260508002705 11 234 9.7 14.5 0.00 0.41 0.41 73 1008.7
20260508002205 11 217 11.3 14.5 0.00 0.41 0.41 73 1008.6
20260508001705 11 219 11.3 16.1 0.00 0.41 0.41 72 1008.6
20260508001205 11 222 11.3 14.5 0.00 0.41 0.41 71 1008.4
20260507235705 12 217 11.3 16.1 0.00 0.41 0.41 70 1008.3
20260507235205 12 226 12.9 19.3 0.00 0.41 0.41 70 1008.3
20260507234705 12 220 14.5 19.3 0.00 0.41 0.41 70 1008.3
20260507234205 12 217 14.5 19.3 0.00 0.41 0.41 69 1008.1
20260507233705 12 220 14.5 19.3 0.00 0.41 0.41 69 1008.0
20260507233205 12 213 16.1 22.5 0.00 0.41 0.41 68 1008.0
20260507232205 12 217 16.1 19.3 0.00 0.41 0.41 69 1007.9
20260507231205 13 224 12.9 19.3 0.00 0.41 0.41 69 1007.9
20260507230705 13 212 17.7 22.5 0.00 0.41 0.41 69 1007.8
20260507230205 13 219 19.3 25.7 0.00 0.41 0.41 68 1007.8
20260507224705 13 198 16.1 24.1 0.00 0.41 0.41 68 1007.8
20260507224205 13 207 19.3 24.1 0.00 0.41 0.41 66 1007.8
20260507223705 13 200 19.3 24.1 0.00 0.41 0.41 67 1007.6
20260507223205 13 199 19.3 27.4 0.00 0.41 0.41 67 1007.7
20260507222205 14 202 17.7 22.5 0.00 0.41 0.41 66 1007.6
20260507221705 14 221 14.5 24.1 0.00 0.41 0.41 63 1007.6
20260507221205 14 193 14.5 19.3 0.00 0.41 0.41 62 1007.6
20260507220705 14 218 11.3 16.1 0.00 0.41 0.41 61 1007.7
20260507220205 15 207 9.7 19.3 0.00 0.41 0.41 60 1007.7
20260507215705 15 192 12.9 19.3 0.00 0.41 0.41 61 1007.8
20260507215205 15 213 12.9 19.3 0.00 0.41 0.41 60 1007.9
20260507214705 15 178 12.9 19.3 0.00 0.41 0.41 57 1007.9
20260507214205 15 206 9.7 16.1 0.00 0.41 0.41 60 1007.9
20260507213705 15 203 9.7 12.9 0.00 0.41 0.41 58 1007.9
20260507213205 15 205 8.0 11.3 0.00 0.41 0.41 58 1007.8
20260507212705 15 217 9.7 12.9 0.00 0.41 0.41 58 1007.7
20260507212205 15 177 9.7 12.9 0.00 0.41 0.41 61 1007.8
20260507211705 15 199 8.0 11.3 0.00 0.41 0.41 60 1007.6
20260507211205 15 201 9.7 16.1 0.00 0.41 0.41 60 1007.6
20260507210205 15 195 11.3 16.1 0.00 0.41 0.41 60 1007.9
20260507205705 15 218 11.3 16.1 0.00 0.41 0.41 62 1008.0
20260507205205 15 201 12.9 19.3 0.00 0.41 0.41 61 1007.9
20260507204705 15 193 9.7 16.1 0.00 0.41 0.41 60 1008.0
20260507204205 15 210 9.7 14.5 0.00 0.41 0.41 60 1007.8
20260507203205 15 194 12.9 16.1 0.00 0.41 0.41 61 1007.8
20260507202705 15 207 14.5 16.1 0.00 0.41 0.41 58 1007.7
20260507202205 15 174 0.0 8.0 0.00 0.41 0.41 57 1007.6
20260507201205 15 210 0.0 3.2 0.00 0.41 0.41 55 1007.7
20260507200705 15 256 3.2 4.8 0.00 0.41 0.41 60 1007.8
20260507200205 15 222 4.8 9.7 0.00 0.41 0.41 58 1008.0
20260507195704 15 233 3.2 4.8 0.00 0.41 0.41 56 1007.9
20260507195205 15 25 0.0 4.8 0.00 0.41 0.41 54 1007.3
20260507194705 15 265 0.0 4.8 0.00 0.41 0.41 55 1007.6
20260507194205 15 246 4.8 9.7 0.00 0.41 0.41 56 1008.0
20260507193705 15 229 4.8 11.3 0.00 0.41 0.41 56 1008.1
20260507192705 15 28 0.0 4.8 0.00 0.41 0.41 59 1008.2
20260507192205 15 80 0.0 0.0 0.00 0.41 0.41 53 1008.2
20260507191705 15 77 1.6 8.0 0.00 0.41 0.41 55 1008.2
20260507191205 15 68 8.0 11.3 0.00 0.41 0.41 54 1007.6
20260507185705 15 80 3.2 4.8 0.00 0.41 0.41 55 1008.5
20260507185205 15 75 1.6 11.3 0.00 0.41 0.41 57 1008.5
20260507184705 15 56 8.0 11.3 0.00 0.41 0.41 55 1008.5
20260507183705 15 294 4.8 9.7 0.00 0.41 0.41 55 1009.0
20260507183205 15 21 1.6 4.8 0.00 0.41 0.41 58 1008.8
20260507182205 15 79 1.6 4.8 0.00 0.41 0.41 63 1008.8
20260507181705 14 217 1.6 4.8 0.00 0.41 0.41 58 1008.9
20260507181205 14 359 1.6 4.8 0.00 0.41 0.41 62 1008.9
20260507180705 14 87 1.6 4.8 0.00 0.41 0.41 64 1008.9
20260507180204 14 55 1.6 4.8 0.00 0.41 0.41 66 1009.2
20260507175705 13 76 1.6 4.8 0.00 0.41 0.41 61 1009.4
20260507175204 13 53 4.8 8.0 0.00 0.41 0.41 66 1009.2
20260507174705 13 5 0.0 4.8 0.00 0.41 0.41 65 1009.6
20260507174205 13 24 1.6 8.0 0.00 0.41 0.41 66 1009.4
20260507173705 13 354 1.6 4.8 0.00 0.41 0.41 68 1009.7
20260507173205 13 351 1.6 4.8 0.00 0.41 0.41 68 1009.7
20260507172705 13 309 3.2 4.8 0.00 0.41 0.41 67 1009.7
20260507172205 13 346 4.8 8.0 0.00 0.41 0.41 61 1009.4
20260507170705 13 335 6.4 11.3 0.00 0.41 0.41 63 1009.5
20260507170205 13 356 3.2 8.0 0.00 0.41 0.41 64 1009.7
20260507165705 13 345 3.2 11.3 0.00 0.41 0.41 61 1009.7
20260507165204 13 335 4.8 9.7 0.00 0.41 0.41 60 1009.8
20260507164705 13 353 1.6 4.8 0.00 0.41 0.41 61 1010.0
20260507164205 13 37 1.6 4.8 0.00 0.41 0.41 61 1010.1
20260507163705 13 344 4.8 14.5 0.00 0.41 0.41 61 1010.2
20260507163204 13 321 3.2 12.9 0.00 0.41 0.41 61 1010.0
20260507162705 13 351 8.0 14.5 0.00 0.41 0.41 60 1010.0
20260507161705 13 1 3.2 8.0 0.00 0.41 0.41 63 1010.4
20260507161205 13 11 4.8 11.3 0.00 0.41 0.41 62 1010.3
20260507160705 13 2 1.6 9.7 0.00 0.43 0.41 62 1010.5
20260507155705 13 356 0.0 4.8 0.00 0.46 0.41 60 1010.6
20260507155205 13 337 3.2 8.0 0.00 0.46 0.41 59 1010.4
20260507154705 13 8 3.2 11.3 0.00 0.46 0.41 60 1010.6
20260507154205 13 8 1.6 11.3 0.00 0.46 0.41 58 1010.5
20260507153205 13 15 4.8 14.5 0.00 0.46 0.41 59 1010.5
20260507152204 13 28 8.0 16.1 0.00 0.46 0.41 60 1010.7
20260507151705 13 28 8.0 16.1 0.00 0.46 0.41 60 1010.7
20260507151205 13 28 8.0 16.1 0.00 0.48 0.41 59 1010.6
20260507150705 13 306 1.6 9.7 0.00 0.48 0.41 58 1010.7
20260507150205 13 344 8.0 16.1 0.00 0.48 0.41 59 1010.7
20260507145705 13 14 3.2 11.3 0.00 0.51 0.41 58 1010.8
20260507145205 13 350 4.8 14.5 0.00 0.51 0.41 58 1010.9
20260507144705 13 24 4.8 19.3 0.00 0.53 0.41 59 1010.9
20260507144205 13 11 6.4 12.9 0.00 0.53 0.41 61 1010.9
20260507143205 13 24 11.3 19.3 0.00 0.53 0.41 59 1011.0
20260507142705 13 341 8.0 16.1 0.00 0.53 0.41 59 1011.0
20260507142205 13 343 6.4 19.3 0.00 0.53 0.41 60 1010.9
20260507141705 13 6 8.0 16.1 0.00 0.53 0.41 61 1011.0
20260507141204 13 6 8.0 19.3 0.00 0.53 0.41 60 1010.9
20260507140705 13 27 1.6 19.3 0.00 0.53 0.41 62 1010.9
20260507140205 13 28 4.8 16.1 0.00 0.53 0.41 60 1010.9
20260507135705 13 12 8.0 16.1 0.00 0.53 0.41 62 1010.9
20260507135205 13 352 4.8 19.3 0.00 0.53 0.41 62 1010.8
20260507134705 13 357 8.0 19.3 0.00 0.53 0.41 61 1010.8
20260507134204 13 357 9.7 19.3 0.00 0.53 0.41 62 1010.9
20260507133705 13 351 4.8 11.3 0.00 0.53 0.41 61 1010.9
20260507133205 14 20 6.4 16.1 0.00 0.53 0.41 62 1011.0
20260507132205 14 336 4.8 12.9 0.00 0.53 0.41 66 1011.0
20260507131205 13 339 6.4 12.9 0.00 0.53 0.41 68 1010.8
20260507130705 13 4 4.8 12.9 0.00 0.53 0.41 67 1010.7
20260507130205 13 12 4.8 16.1 0.00 0.53 0.41 69 1010.9
20260507125705 13 18 4.8 12.9 0.00 0.53 0.41 73 1010.7
20260507124705 13 20 4.8 9.7 0.00 0.53 0.41 81 1010.7
20260507124205 13 0 1.6 8.0 0.00 0.53 0.41 81 1011.1
20260507123704 13 46 1.6 4.8 0.00 0.53 0.41 81 1011.0
20260507123205 13 33 4.8 8.0 0.00 0.53 0.41 82 1010.7
20260507122706 13 36 3.2 8.0 0.00 0.53 0.41 82 1010.8
20260507122205 12 28 3.2 12.9 0.00 0.53 0.41 82 1010.8
20260507121705 12 41 3.2 8.0 0.00 0.53 0.41 83 1010.8
20260507121205 12 66 3.2 4.8 0.00 0.53 0.41 83 1010.9
20260507120705 12 51 1.6 9.7 0.00 0.53 0.41 83 1010.7
20260507120205 12 11 1.6 8.0 0.00 0.53 0.41 83 1010.8
20260507115705 12 47 4.8 8.0 0.00 0.53 0.41 83 1010.7
20260507115205 12 52 3.2 4.8 0.00 0.53 0.41 83 1010.7
20260507114705 12 65 4.8 8.0 0.00 0.53 0.41 83 1010.5
20260507114205 12 60 4.8 9.7 0.00 0.53 0.41 84 1010.6